This is the latest recevied weather packets stored in our database for station/object N7BTW-13. If no packets are shown the sender has not sent any weather packets the latest 10 day(s).
| Time | Temp. | Humidity | Pressure | Rain* | Wind** | Luminosity | Snow |
|---|---|---|---|---|---|---|---|
| 1788207907 | 28.89° C | 40% | - | 0 mm | - | - | - |
| 1788207309 | 28.89° C | 41% | - | 0 mm | - | - | - |
| 1788206707 | 28.33° C | 41% | - | 0 mm | - | - | - |
| 1788206108 | 27.78° C | 42% | - | 0 mm | - | - | - |
| 1788205508 | 27.78° C | 42% | - | 0 mm | - | - | - |
| 1788204909 | 27.22° C | 43% | - | 0 mm | - | - | - |
| 1788204307 | 27.22° C | 44% | - | 0 mm | - | - | - |
| 1788203707 | 26.11° C | 44% | - | 0 mm | - | - | - |
| 1788203113 | 26.67° C | 45% | - | 0 mm | - | - | - |
| 1788202507 | 26.11° C | 46% | - | 0 mm | - | - | - |
| 1788201907 | 25.56° C | 48% | - | 0 mm | - | - | - |
| 1788201311 | 25.56° C | 50% | - | 0 mm | - | - | - |
| 1788200708 | 25° C | 51% | - | 0 mm | - | - | - |
| 1788200109 | 23.33° C | 53% | - | 0 mm | - | - | - |
| 1788199506 | 24.44° C | 53% | - | 0 mm | - | - | - |
| 1788198908 | 23.89° C | 55% | - | 0 mm | - | - | - |
| 1788198308 | 23.33° C | 56% | - | 0 mm | - | - | - |
| 1788197709 | 22.78° C | 59% | - | 0 mm | - | - | - |
| 1788197106 | 21.67° C | 60% | - | 0 mm | - | - | - |
| 1788196507 | 21.11° C | 61% | - | 0 mm | - | - | - |
| 1788195906 | 21.11° C | 60% | - | 0 mm | - | - | - |
| 1788195321 | 20° C | 64% | - | 0 mm | - | - | - |
| 1788194707 | 19.44° C | 66% | - | 0 mm | - | - | - |
| 1788194110 | 19.44° C | 67% | - | 0 mm | - | - | - |
| 1788193507 | 18.89° C | 69% | - | 0 mm | - | - | - |
* Rain latest hour (hover to see other rain measurements)
** Current wind speed in m/s (hover to see current wind gust speed)